This is the latest recevied weather packets stored in our database for station/object IW3HBX-13. If no packets are shown the sender has not sent any weather packets the latest 10 day(s).
| Time | Temp. | Humidity | Pressure | Rain* | Wind** | Luminosity | Snow |
|---|---|---|---|---|---|---|---|
| 1777535647 | 13.33° C | 46% | 1025.9 hPa | 0 mm | - | 456 W/m² | - |
| 1777535290 | 13.33° C | 46% | 1025.8 hPa | 0 mm | - | 405 W/m² | - |
| 1777534927 | 12.78° C | 47% | 1025.8 hPa | 0 mm | - | 353 W/m² | - |
| 1777534568 | 12.78° C | 46% | 1025.8 hPa | 0 mm | - | 305 W/m² | - |
| 1777534207 | 12.78° C | 46% | 1025.8 hPa | 0 mm | - | 320 W/m² | - |
| 1777533849 | 12.78° C | 47% | 1025.8 hPa | 0 mm | - | 217 W/m² | - |
| 1777533487 | 12.22° C | 47% | 1025.9 hPa | 0 mm | - | 193 W/m² | - |
| 1777533127 | 12.22° C | 46% | 1025.7 hPa | 0 mm | - | 184 W/m² | - |
| 1777532769 | 12.78° C | 46% | 1025.8 hPa | 0 mm | - | 190 W/m² | - |
| 1777532047 | 12.22° C | 46% | 1025.5 hPa | 0 mm | - | 176 W/m² | - |
| 1777531688 | 12.22° C | 46% | 1025.6 hPa | 0 mm | - | 166 W/m² | - |
| 1777531329 | 12.22° C | 47% | 1025.5 hPa | 0 mm | - | 162 W/m² | - |
| 1777530969 | 12.22° C | 47% | 1025.4 hPa | 0 mm | - | 159 W/m² | - |
| 1777530607 | 12.78° C | 47% | 1025.3 hPa | 0 mm | - | 182 W/m² | - |
| 1777530248 | 12.78° C | 46% | 1025.2 hPa | 0 mm | - | 184 W/m² | - |
| 1777529887 | 12.22° C | 48% | 1025.2 hPa | 0 mm | - | 186 W/m² | - |
| 1777529529 | 12.22° C | 48% | 1025.2 hPa | 0 mm | - | 191 W/m² | - |
| 1777529167 | 12.22° C | 49% | 1025.2 hPa | 0 mm | - | 159 W/m² | - |
| 1777528449 | 11.67° C | 49% | 1025.1 hPa | 0 mm | - | 136 W/m² | - |
| 1777528089 | 11.67° C | 49% | 1025 hPa | 0 mm | - | 115 W/m² | - |
| 1777527727 | 11.67° C | 49% | 1025 hPa | 0 mm | - | 94 W/m² | - |
| 1777527368 | 11.67° C | 50% | 1025 hPa | 0 mm | - | 84 W/m² | - |
| 1777527009 | 11.67° C | 50% | 1024.9 hPa | 0 mm | - | 74 W/m² | - |
| 1777526647 | 11.67° C | 51% | 1024.8 hPa | 0 mm | - | 64 W/m² | - |
| 1777526289 | 11.67° C | 51% | 1024.8 hPa | 0 mm | - | 62 W/m² | - |
* Rain latest hour (hover to see other rain measurements)
** Current wind speed in m/s (hover to see current wind gust speed)